Weather History for Ardmore, OK

Change the Weather History Date:

Friday, September 28, 2012

  Actual Average Record
Temperature  
Mean Temperature 68 °F -  
Max Temperature 73 °F 80 °F 98 °F (1998)
Min Temperature 64 °F 58 °F 44 °F (1996)
Cooling Degree Days 4    
Growing Degree Days 18 (Base 50)    
Moisture  
Dew Point 66 °F    
Average Humidity 96    
Maximum Humidity 100    
Minimum Humidity 83    
Precipitation  
Precipitation 0.00 in - - ()
Sea Level Pressure  
Sea Level Pressure 30.05 in    
Wind  
Wind Speed 0 mph (ENE)    
Max Wind Speed 4 mph    
Max Gust Speed -    
Visibility 7 miles    
Events Fog , Rain    
Averages and records for this station are not official NWS values.
T = Trace of Precipitation, MM = Missing Value Source: NWS Daily Summary

Daily Weather History Graph

Daily Weather History Graph

Search for Another Location

Airport:

Trip Planner

Search our weather history database for the weather conditions in past years. The results will help you decide how hot, cold, wet, or windy it might be!

Date:

Astronomy

Sep. 28, 2012 Rise Set
Actual Time 7:20 AM CDT 7:15 PM CDT
Civil Twilight 6:55 AM CDT 7:40 PM CDT
Nautical Twilight 6:26 AM CDT 8:09 PM CDT
Astronomical Twilight 5:57 AM CDT 8:38 PM CDT
Moon 6:17 PM CDT (9/28) 5:54 AM CDT (9/28)
Length of Visible Light 12h 44m
Length of Day
11h 54m
Waxing Gibbous, 98% of the Moon is Illuminated
Sep 28
Waxing Gibbous
Sep 29
Full
Oct 8
Last Quarter
Oct 15
New
Oct 21
First Quarter

Hourly Weather History & Observations

Time (CDT) Temp. Dew Point Humidity Pressure Visibility Wind Dir Wind Speed Gust Speed Precip Events Conditions
12:15 AM 68.0 °F 66.2 °F 94% 30.07 in 7.0 mi Calm Calm - N/A   Clear
12:35 AM 68.0 °F 66.2 °F 94% 30.06 in 10.0 mi Calm Calm - N/A   Clear
12:55 AM 66.2 °F 66.2 °F 100% 30.07 in 10.0 mi Calm Calm - N/A   Clear
1:15 AM 68.0 °F 66.2 °F 94% 30.06 in 7.0 mi North 3.5 mph - N/A   Clear
1:35 AM 68.0 °F 66.2 °F 94% 30.06 in 10.0 mi Calm Calm - N/A   Clear
1:55 AM 68.0 °F 66.2 °F 94% 30.07 in 10.0 mi Calm Calm - N/A   Clear
2:15 AM 68.0 °F 66.2 °F 94% 30.07 in 10.0 mi Calm Calm - N/A   Clear
2:35 AM 68.0 °F 66.2 °F 94% 30.07 in 10.0 mi Calm Calm - N/A   Clear
2:55 AM 68.0 °F 66.2 °F 94% 30.06 in 7.0 mi Calm Calm - N/A   Clear
3:15 AM 66.2 °F 66.2 °F 100% 30.06 in 7.0 mi Calm Calm - N/A   Clear
3:35 AM 64.4 °F 64.4 °F 100% 30.05 in 5.0 mi Calm Calm - N/A   Clear
3:55 AM 66.2 °F 66.2 °F 100% 30.05 in 4.0 mi Calm Calm - N/A   Clear
4:15 AM 66.2 °F 66.2 °F 100% 30.04 in 3.0 mi Calm Calm - N/A   Clear
4:35 AM 64.4 °F 64.4 °F 100% 30.04 in 0.2 mi Calm Calm - N/A Fog Fog
4:55 AM 64.4 °F 64.4 °F 100% 30.04 in 2.0 mi Calm Calm - N/A   Clear
5:15 AM 64.4 °F 64.4 °F 100% 30.05 in 7.0 mi Calm Calm - N/A   Clear
5:35 AM 64.4 °F 64.4 °F 100% 30.05 in 7.0 mi Calm Calm - N/A   Clear
5:55 AM 64.4 °F 64.4 °F 100% 30.05 in 7.0 mi Calm Calm - N/A   Clear
6:15 AM 64.4 °F 64.4 °F 100% 30.05 in 7.0 mi Calm Calm - N/A   Clear
6:35 AM 64.4 °F 64.4 °F 100% 30.05 in 7.0 mi Calm Calm - N/A   Clear
11:35 PM 73.4 °F 68.0 °F 83% 30.04 in 10.0 mi East 3.5 mph - N/A   Scattered Clouds
11:55 PM 73.4 °F 68.0 °F 83% 30.04 in 10.0 mi East 3.5 mph - N/A Rain Light Rain